Flag for Turkey Weather past 2 weeks in Ankara, Turkey

Now
34 °F

Passing clouds.


Feels Like: 30 °F
Forecast: 20 / 51 °F
Wind: 5 mph from Northwest

Location: Ankara / Esenboga

Current Time: Mar 4, 2015 at 6:40:52 AM

Latest Report: Mar 4, 2015 at 5:50 AM


Visibility: N/A

Pressure: 30.09 "Hg

Humidity: 51%

Dew point: 18 °F

Location of AnkaraLocation

Historic Weather in Ankara — Graph

°F

Ankara temperature yesterday

Maximum temperature yesterday: 48 °F (at 12:20 PM)
Minimum temperature yesterday: 28 °F (at 2:20 AM)
Average temperature yesterday: 39 °F

Past Weeks' High & Low Weather Summary

 TemperatureHumidityPressure
High57 °F (Feb 27, 2:50 PM)100% (Feb 19, 5:20 AM)30.24 "Hg (Feb 19, 5:20 AM)
Low12 °F (Feb 21, 5:50 AM)36% (Feb 27, 3:50 PM)29.80 "Hg (Feb 19, 3:50 PM)
Average34 °F77%30.00 "Hg
* Reported Feb 17 5:20 AM — Mar 4 5:20 AM, Ankara, Weather by CustomWeather, © 2015

Note: Actual official high and low records may vary slightly from our data, if they occured in-between our weather recording intervals... More about our weather records

Advertising

Ankara weather history for previous 24 hours

 ConditionsComfort  
Time TempWeatherWind HumidityBarometerVisibility
5:20 AM
Wed, Mar 4
32 °FPartly cloudy.6 mph60%30.09 "HgN/A
4:50 AM34 °FPartly cloudy.8 mph56%30.09 "HgN/A
4:20 AM36 °FPartly cloudy.6 mph65%30.09 "HgN/A
3:50 AM37 °FPartly cloudy.8 mph65%30.07 "HgN/A
3:20 AM37 °FPartly cloudy.14 mph70%30.07 "HgN/A
2:50 AM37 °FPartly cloudy.12 mph65%30.04 "HgN/A
2:20 AM37 °FPartly cloudy.12 mph70%30.04 "HgN/A
1:50 AM39 °FPartly cloudy.5 mph75%30.04 "HgN/A
1:20 AM41 °FPartly cloudy.3 mph76%30.04 "HgN/A
12:50 AM39 °FPartly cloudy.7 mph87%30.04 "HgN/A
12:20 AM39 °FPartly cloudy.8 mph87%30.01 "HgN/A
11:50 PM
Tue, Mar 3
41 °FPartly cloudy.8 mph81%30.01 "HgN/A
11:20 PM39 °FPartly cloudy.8 mph87%30.01 "HgN/A
10:50 PM41 °FPartly cloudy.9 mph81%30.01 "HgN/A
10:20 PM43 °FPartly cloudy.10 mph81%30.01 "HgN/A
9:20 PM43 °FPartly cloudy.10 mph76%29.98 "HgN/A
8:50 PM43 °FPartly cloudy.10 mph76%29.98 "HgN/A
8:20 PM43 °FPartly cloudy.12 mph76%29.98 "HgN/A
7:50 PM43 °FPartly cloudy.10 mph76%29.98 "HgN/A
7:20 PM43 °FPartly cloudy.13 mph76%29.98 "HgN/A
6:50 PM45 °FPartly cloudy.13 mph66%29.95 "HgN/A
6:20 PM45 °FPartly cloudy.8 mph66%29.95 "HgN/A
5:50 PM45 °FPartly cloudy.2 mph66%29.95 "HgN/A
5:20 PM45 °FBroken clouds.3 mph71%29.95 "HgN/A
4:50 PM46 °FBroken clouds.5 mph66%29.95 "HgN/A
4:20 PM48 °FBroken clouds.10 mph58%29.95 "HgN/A
3:50 PM48 °FBroken clouds.12 mph54%29.95 "HgN/A
3:20 PM48 °FBroken clouds.13 mph54%29.95 "HgN/A
2:50 PM48 °FBroken clouds.13 mph50%29.95 "HgN/A
2:20 PM48 °FBroken clouds.14 mph50%29.95 "HgN/A
1:50 PM48 °FBroken clouds.10 mph58%29.95 "HgN/A
1:20 PM48 °FBroken clouds.12 mph58%29.95 "HgN/A
12:50 PM48 °FScattered clouds.13 mph58%29.95 "HgN/A
12:20 PM48 °FScattered clouds.10 mph58%29.98 "HgN/A
11:50 AM46 °FScattered clouds.10 mph66%29.98 "HgN/A
11:20 AM46 °FScattered clouds.12 mph66%29.98 "HgN/A
10:50 AM45 °FScattered clouds.7 mph71%29.98 "HgN/A
10:20 AM43 °FScattered clouds.5 mph76%29.98 "HgN/A
9:50 AM41 °FScattered clouds.1 mph76%29.98 "HgN/A
9:20 AM37 °FScattered clouds.3 mph81%30.01 "HgN/A
8:50 AM37 °FPassing clouds.1 mph75%30.01 "HgN/A
8:20 AM36 °FPassing clouds.1 mph81%30.01 "HgN/A
7:50 AM32 °FPassing clouds.2 mph87%30.01 "HgN/A
7:20 AM30 °FScattered clouds.3 mph93%29.98 "HgN/A
6:50 AM30 °FScattered clouds.1 mph93%29.98 "HgN/A
6:20 AM30 °FScattered clouds.1 mph93%29.98 "HgN/A
Weather by CustomWeather, © 2015

See weather overviewHow to use our weather pages